GIOVE-A 1 28922U 05051A 12035.25419616 -.00000008 +00000-0 +10000-3 0 09239 2 28922 056.2049 132.0455 0007258 011.9086 348.1105 01.69484503037875 GIOVE-B 1 32781U 08020A 12036.36878978 .00000023 00000-0 10000-3 0 5578 2 32781 055.9180 166.3967 0020220 220.2861 139.5147 01.70956933 23598